Voltar ao catálogo

STARLINK-3844

AtivoComunicaçõesVLEO
NORAD 52705·PAYLOAD·🇺🇸 United States

Lançado May 18, 2022 de Cape Canaveral Space Force Station

Loading…

Próximas Passagens (próximas 24 horas)

TLE

AtualizadoSource: CelesTrak SupGP

Época: Sep 14, 2026, 22:19 UTC

1 52705C 22053BB  26257.93034722 -.00035151  00000+0 -10057-2 0  2571
2 52705  53.1581 351.6575 0001163  91.8903 124.6004 15.35416178    16

Acompanhe STARLINK-3844 em tempo real com AllMySat

Download on the App Store